Indianapolis, IN

2:24 PM EDT on May 27, 2017 (GMT -0400)
Indianapolis International

Weather History for KIND - September, 2014

Change the Weather History Date:

Thursday, September 4, 2014

  Actual Average Record
Temperature  
Mean Temperature 77 °F 71 °F  
Max Temperature 87 °F 82 °F 98 °F (1954)
Min Temperature 66 °F 61 °F 46 °F (1952)
Degree Days  
Heating Degree Days 0 0  
Month to date heating degree days 0 0  
Since 1 July heating degree days 6 4  
Cooling Degree Days 12 7  
Month to date cooling degree days 40 29  
Year to date cooling degree days 837 950  
Growing Degree Days 26 (Base 50)    
Moisture  
Dew Point 67 °F    
Average Humidity 71    
Maximum Humidity 93    
Minimum Humidity 48    
Precipitation  
Precipitation 0.00 in 0.09 in 6.80 in (1895)
Month to date precipitation 1.00 0.39  
Year to date precipitation 31.52 29.72  
Snow  
Snow 0.00 in 0.00 in 0.00 in ()
Month to date snowfall 0.0 0.0  
Since 1 July snowfall 0.0 0.0  
Since 1 September snowfall 0.0 0.0  
Snow Depth 0.00 in    
Sea Level Pressure  
Sea Level Pressure 30.04 in    
Wind  
Wind Speed 8 mph (South)    
Max Wind Speed 16 mph    
Max Gust Speed 20 mph    
Visibility 9 miles    
Events      
T = Trace of Precipitation, MM = Missing Value Source: NWS Daily Summary

Daily Weather History Graph

Daily Weather History Graph

Search for Another Location

Airport or City:

Trip Planner

Search our weather history database for the weather conditions in past years. The results will help you decide how hot, cold, wet, or windy it might be!

Date:

Astronomy

Sep. 04, 2014 Rise Set
Actual Time 7:16 AM EDT 8:11 PM EDT
Civil Twilight 6:48 AM EDT 8:39 PM EDT
Nautical Twilight 6:15 AM EDT 9:11 PM EDT
Astronomical Twilight 5:41 AM EDT 9:45 PM EDT
Moon 4:48 PM EDT (9/4) 2:06 AM EDT (9/4)
Length of Visible Light 13h 50m
Length of Day
12h 55m
Waxing Gibbous, 74% of the Moon is Illuminated
Sep 4
Waxing Gibbous
Sep 8
Full
Sep 15
Last Quarter
Sep 24
New
Oct 1
First Quarter

Hourly Weather History & Observations

Time (EDT) Temp. Heat Index Dew Point Humidity Pressure Visibility Wind Dir Wind Speed Gust Speed Precip Events Conditions
12:54 AM 72.0 °F - 63.0 °F 73% 30.05 in 10.0 mi South 9.2 mph - N/A   Clear
1:54 AM 69.1 °F - 62.1 °F 78% 30.05 in 10.0 mi South 4.6 mph - N/A   Clear
2:54 AM 69.1 °F - 62.1 °F 78% 30.04 in 10.0 mi SSE 8.1 mph - N/A   Clear
3:54 AM 69.1 °F - 63.0 °F 81% 30.03 in 10.0 mi SE 8.1 mph - N/A   Mostly Cloudy
4:54 AM 70.0 °F - 64.0 °F 81% 30.03 in 10.0 mi SSE 8.1 mph - N/A   Scattered Clouds
5:54 AM 68.0 °F - 64.0 °F 87% 30.03 in 9.0 mi South 6.9 mph - N/A   Partly Cloudy
6:54 AM 66.9 °F - 64.0 °F 90% 30.03 in 6.0 mi SSE 6.9 mph - N/A   Clear
7:54 AM 66.9 °F - 64.9 °F 93% 30.04 in 5.0 mi South 4.6 mph - N/A   Partly Cloudy
8:54 AM 71.1 °F - 66.9 °F 87% 30.05 in 5.0 mi South 9.2 mph - N/A   Partly Cloudy
9:54 AM 75.9 °F - 69.1 °F 79% 30.07 in 7.0 mi SSW 8.1 mph - N/A   Partly Cloudy
10:54 AM 80.1 °F 83.2 °F 70.0 °F 71% 30.09 in 9.0 mi SW 9.2 mph - N/A   Scattered Clouds
11:54 AM 82.0 °F 85.9 °F 70.0 °F 67% 30.08 in 10.0 mi SSW 10.4 mph - N/A   Partly Cloudy
12:54 PM 82.9 °F 85.8 °F 68.0 °F 60% 30.06 in 10.0 mi SW 4.6 mph - N/A   Partly Cloudy
1:54 PM 84.9 °F 88.8 °F 69.1 °F 59% 30.08 in 10.0 mi SSW 9.2 mph - N/A   Scattered Clouds
2:54 PM 87.1 °F 90.6 °F 68.0 °F 53% 30.06 in 10.0 mi SSW 8.1 mph - N/A   Scattered Clouds
3:54 PM 86.0 °F 88.8 °F 66.9 °F 53% 30.04 in 10.0 mi SSW 8.1 mph - N/A   Scattered Clouds
4:54 PM 86.0 °F 88.8 °F 66.9 °F 53% 30.02 in 10.0 mi SSW 6.9 mph - N/A   Scattered Clouds
5:54 PM 86.0 °F 87.3 °F 64.0 °F 48% 30.02 in 10.0 mi SW 11.5 mph - N/A   Scattered Clouds
6:54 PM 82.9 °F 85.4 °F 66.9 °F 58% 29.99 in 10.0 mi SSW 13.8 mph - N/A   Scattered Clouds
7:54 PM 81.0 °F 84.4 °F 70.0 °F 69% 30.00 in 10.0 mi South 10.4 mph - N/A   Partly Cloudy
8:54 PM 79.0 °F - 68.0 °F 69% 30.03 in 10.0 mi South 10.4 mph - N/A   Partly Cloudy
9:54 PM 78.8 °F - 68.0 °F 69% 30.06 in 10.0 mi South 6.9 mph - N/A   Partly Cloudy
10:54 PM 75.0 °F - 68.0 °F 79% 30.06 in 10.0 mi SE 5.8 mph - N/A   Clear
11:54 PM 75.9 °F - 69.1 °F 79% 30.06 in 10.0 mi SSE 9.2 mph - N/A   Scattered Clouds